Simultaneous Nadir Overpasses (SNOs) Predictions

Prediction of SNOs between NPP and METOP-C Satellite Orbit:

Table of predicted SNOs for the next 14.0 days since TLE Epoch: 10/19/2024
Index Date (NPP) Time (NPP) Lat,Lon (NPP) SZA (NPP ) Date (METOP-C) Time (METOP-C) Lat,Lon (METOP-C) SZA (METOP-C ) Distance(km) Time Diff (sec)
1 10/23/2024 08:08:03 73.44, 48.28 85.04 10/23/2024 08:09:09 73.35, 51.13 84.90 91.15 66
2 10/23/2024 08:58:45 -73.34,-144.19 95.05 10/23/2024 08:59:52 -73.31,-141.64 95.14 81.54 67
3 10/23/2024 09:49:27 73.14, 23.56 84.75 10/23/2024 09:50:36 73.08, 25.19 84.66 52.94 69
4 10/23/2024 10:40:09 -73.04,-168.92 95.34 10/23/2024 10:41:20 -72.99,-167.68 95.43 40.54 71
5 10/23/2024 11:30:51 72.84, -1.17 84.46 10/23/2024 11:32:04 72.76, -0.84 84.37 14.27 73
6 10/23/2024 12:21:33 -72.75, 166.34 95.63 10/23/2024 12:22:47 -72.72, 166.41 95.66 3.88 74
7 10/23/2024 13:12:18 72.69, -26.23 84.33 10/23/2024 13:13:27 72.68, -26.32 84.32 2.99 69
8 10/23/2024 14:03:02 -72.70, 141.07 95.65 10/23/2024 14:04:09 -72.70, 141.02 95.66 1.38 67
9 10/23/2024 14:53:48 72.69, -51.62 84.36 10/23/2024 14:54:48 72.72, -51.60 84.38 2.50 60
10 10/23/2024 15:44:32 -72.70, 115.68 95.62 10/23/2024 15:45:31 -72.68, 115.64 95.65 3.21 59
11 10/23/2024 16:35:18 72.70, -77.00 84.39 10/23/2024 16:36:10 72.69, -76.98 84.38 0.56 52
12 10/23/2024 17:26:02 -72.71, 90.30 95.60 10/23/2024 17:26:52 -72.71, 90.37 95.60 2.11 50
13 10/23/2024 18:16:48 72.70,-102.38 84.42 10/23/2024 18:17:32 72.67,-102.36 84.39 2.95 44
14 10/23/2024 19:07:32 -72.71, 64.92 95.57 10/23/2024 19:08:14 -72.69, 64.98 95.60 3.33 42
15 10/23/2024 19:58:17 72.65,-127.66 84.39 10/23/2024 19:58:54 72.65,-127.75 84.39 2.96 37
16 10/23/2024 20:49:01 -72.66, 39.64 95.59 10/23/2024 20:49:36 -72.67, 39.60 95.59 1.38 35
17 10/23/2024 21:39:47 72.66,-153.04 84.42 10/23/2024 21:40:15 72.68,-153.02 84.44 3.07 28
18 10/23/2024 22:30:31 -72.67, 14.26 95.56 10/23/2024 22:30:58 -72.64, 14.22 95.59 2.61 27
19 10/23/2024 23:21:17 72.66,-178.42 84.45 10/23/2024 23:21:37 72.66,-178.41 84.45 0.60 20
20 10/24/2024 00:12:01 -72.67, -11.12 95.54 10/24/2024 00:12:19 -72.68, -11.06 95.53 2.26 18
21 10/24/2024 01:02:47 72.66, 156.20 84.48 10/24/2024 01:02:59 72.64, 156.21 84.45 2.41 12
22 10/24/2024 01:53:31 -72.67, -36.50 95.51 10/24/2024 01:53:41 -72.65, -36.44 95.53 2.90 10
23 10/24/2024 02:44:16 72.62, 130.92 84.45 10/24/2024 02:44:21 72.62, 130.83 84.46 3.03 5
24 10/24/2024 03:35:00 -72.63, -61.78 95.53 10/24/2024 03:35:03 -72.63, -61.82 95.52 1.63 3
25 10/24/2024 04:25:46 72.62, 105.54 84.48 10/24/2024 04:25:42 72.65, 105.55 84.51 3.57 4
26 10/24/2024 05:16:30 -72.63, -87.16 95.50 10/24/2024 05:16:25 -72.61, -87.20 95.52 2.10 5
27 10/24/2024 06:07:16 72.62, 80.16 84.51 10/24/2024 06:07:04 72.63, 80.17 84.52 0.96 12
28 10/24/2024 06:58:00 -72.63,-112.55 95.48 10/24/2024 06:57:46 -72.64,-112.48 95.46 2.53 14
29 10/24/2024 07:48:46 72.63, 54.77 84.54 10/24/2024 07:48:26 72.61, 54.79 84.52 1.96 20
30 10/24/2024 08:39:30 -72.64,-137.93 95.45 10/24/2024 08:39:08 -72.62,-137.86 95.46 2.61 22
31 10/24/2024 09:30:15 72.58, 29.49 84.51 10/24/2024 09:29:48 72.59, 29.41 84.52 3.14 27
32 10/24/2024 10:20:59 -72.59,-163.21 95.47 10/24/2024 10:20:30 -72.60,-163.24 95.46 1.96 29
33 10/24/2024 11:11:45 72.58, 4.11 84.54 10/24/2024 11:11:10 72.57, 4.02 84.53 3.42 35
34 10/24/2024 12:02:29 -72.59, 171.41 95.44 10/24/2024 12:01:52 -72.58, 171.38 95.45 1.68 37
35 10/24/2024 12:53:15 72.59, -21.27 84.57 10/24/2024 12:52:31 72.60, -21.25 84.58 1.33 44
36 10/24/2024 13:43:59 -72.60, 146.03 95.42 10/24/2024 13:43:13 -72.61, 146.10 95.40 2.85 46
37 10/24/2024 14:34:45 72.59, -46.65 84.60 10/24/2024 14:33:53 72.58, -46.64 84.59 1.58 52
38 10/24/2024 15:25:29 -72.60, 120.65 95.39 10/24/2024 15:24:35 -72.59, 120.72 95.39 2.45 54
39 10/24/2024 16:16:14 72.54, -71.93 84.57 10/24/2024 16:15:15 72.56, -72.02 84.59 3.27 59
40 10/24/2024 17:06:58 -72.55, 95.37 95.41 10/24/2024 17:05:57 -72.57, 95.33 95.39 2.29 61
41 10/24/2024 17:57:44 72.55, -97.31 84.60 10/24/2024 17:56:37 72.54, -97.40 84.59 3.24 67
42 10/24/2024 18:48:28 -72.56, 69.99 95.38 10/24/2024 18:47:19 -72.55, 69.95 95.39 1.36 69
43 10/24/2024 19:39:13 72.50,-122.59 84.57 10/24/2024 19:37:59 72.52,-122.78 84.60 6.57 74
44 10/24/2024 20:29:56 -72.46, 44.81 95.46 10/24/2024 20:28:42 -72.48, 44.47 95.43 11.59 74
45 10/24/2024 21:20:37 72.20,-147.37 84.28 10/24/2024 21:19:26 72.24,-148.67 84.36 44.44 71
46 10/24/2024 22:11:20 -72.16, 20.03 95.75 10/24/2024 22:10:10 -72.15, 18.49 95.72 52.49 70
47 10/24/2024 23:02:01 71.89,-172.16 83.99 10/24/2024 23:00:54 71.91,-174.64 84.07 85.54 67
48 10/24/2024 23:52:44 -71.85, -4.77 96.04 10/24/2024 23:51:37 -71.87, -7.38 95.96 90.20 67



Historial Predications of SNOs between NPP and METOP-C
